STARLINK-1031 (44736 NORAD) Tracking and Keplerian Element Data

This shows tracking and keplerian element data for the satellite.

Feedback or suggestion? Click here.




ElementValue
Catalog44736
NameSTARLINK-1031
Epoch Orbit1141
Epoch Day23.25001157
Epoch Year2020
RAAN172.2372
Inclination53.0054
Eccentricity0.0001284
Argument of Perigee76.689
Mean Anonmoly304.8283
Mean Motion15.34348352
Decay Rate-0.00053878
L11 44736U 19074Z 20023.25001157 -.00053878 00000-0 -15973-2 0 9993
L22 44736 53.0054 172.2372 0001284 76.6890 304.8283 15.34348352 11411

Live tracking and technical data element details for STARLINK-1031 (NORAD 44736). STARLINK-1031 can be tracked NOW for your location showing map with azimuth and elevation plus other details from your city location.

Track the satellite on the map from your city or location and see movement details for azimuth, elevation, latitude, longitude, range, height, and movement on the map or in text.







IsCatalogInMostPopularTable: catalog: 44736, numindb: 10
Update: records affected: 1



GetName: 44736 STARLINK-1031

Hit Count: updated at: Fri, 24 Jan 2020 11:56:15 GMT